sat.trackr.live / text

‹ back to catalog

FLOCK 4Q-27

NORAD 58282 · 2023-174AC

PAYLOAD ACTIVE UNKNOWN

§ Identity

Operator
Country
US
Launch date
2023-11-11
Launch site
AFWTR
Launch vehicle
Mass (kg)
RCS (m²)

Purposes: earth_obs

External: N2YO · Heavens-Above · Gunter

§ Orbital elements

Epoch: 2026-05-25T04:39:52.444800Z

Period
92.71 min
Inclination
97.3813°
Eccentricity
0.0004837
Mean motion
15.53185687 rev/d
Perigee alt
404.1 km
Apogee alt
410.7 km
Semi-major
6,785.6 km
B*
4.4719e-4
RAAN
235.1173°
Arg perigee
208.4771°
Mean anomaly
151.6219°
Rev number
14,218

§ Raw data

FLOCK 4Q-271 58282U 23174AC  26145.19435700  .00028041  00000+0  44719-3 0  99912 58282  97.3813 235.1173 0004837 208.4771 151.6219 15.53185687142181

JSON: /api/v1/satellites/58282 · /tle

For live sub-satellite position, see the globe view (requires WebGL).

§ Visibility from observer

Set your observer location to see the next 7 days of passes ≥ 10°. The values pass through the URL so the page stays shareable.

No JS? Fill the form by hand. The geolocation button needs JavaScript.